ATLAS 5 CENTAUR DEB, 44010

Orbit data source: Space-Track

ATLAS 5 CENTAUR DEB, 44010 is space debris in HEO originally from a launch on Wed, 17 Sep 2014 UTC launched from the Air Force Eastern Test Range (AFETR). Debris objects in space refer to the collection of defunct objects orbiting the Earth. Examples of debris include non-operational satellites, rocket bodies, and fragments generated from explosions, collisions, or faulty payload assembly.

Loading next visibility...
Identifier
44010, 2014-055BR
Orbit
HEO
Country
Flag of USUS
Related business
Flag of USUnited Launch Alliance/Lockheed Martin (US)
Manufacturer
Unknown
Mission
Spacecraft
Bus & Motor
Unknown
Mass
Unknown
Launch date (UTC)
2014-09-17 (11 years ago)
Launch vehicle
Unknown
Launch site
Air Force Eastern Test Range (AFETR)
Object type
Payload
Rocket body
Debris
Shape & HBR
Unknown shape, 1.1 m
Radar Cross Section
Small (<0.1 m²)

Expand to show TLE details & history
Last TLE update: 2 months ago

TLE from 2 months ago
0 ATLAS 5 CENTAUR DEB
1 44010U 14055BR  26019.00091767 -.00000020  00000-0  00000-0 0  9995
2 44010  19.4458 172.0099 4782506 112.9337 303.5206  1.82360788 48642
Epoch: 2026-01-19T00:01Z
TLE epoch observation values (Epoch: 2026-01-19T00:01:19.286Z)
Latitude
-0.00002°
Longitude
53.18724°
Altitude
20,455.023 km
Speed
3.953 km/s
True Right ascension
11h 27m 41s
True Declination
0° 00' 00"
Sunlit
Object was in daylight at epoch
Visualization orbit readout
Latitude
Unknown
Longitude
Unknown
Altitude
Unknown
Speed
Unknown
Apparent Right ascension
Unknown
Apparent Declination
Unknown
Sunlit
N/A
Visualization observer readout
Local Sidereal Time
08:44:58
Azimuth
Unknown
Elevation
Unknown
Doppler factor
Unknown
Orbital elements
Apogee altitude
35,458.676 km
Perigee altitude
8,388.19 km
Semi-major axis
28,301.57 km
Eccentricity
0.47825
Inclination
19.4458°
RAAN
172.0099°
Arg. of periapsis
112.9337°
True anomaly
247.09691°
Mean anomaly
303.5206°
Eccentric anomaly
276.28347°
Mean motion
0.45586 °/min
Orbital period
789.72 mins
BSTAR
0
Loading maneuver chart data...
Computing Atmospheric mass density...

Documentation

Showing up to 5 results
|